Vorticity
nan nan nan nan nan nan nan nan nan nan nan nan nan nan nan nan nan nan nan nan nan nan nan nan nan nan nan nan nan nan nan nan nan nan nan nan nan nan nan nan nan nan nan nan nan nan nan nan nan
nan 4 6 8 8 5 6 8 6 -1 1 10 12 9 7 5 3 7 13 13 10 6 6 6 5 5 5 5 5 5 5 4 5 5 5 5 5 5 5 5 5 6 6 7 8 7 6 4 nan
nan 6 8 5 5 5 5 7 2 1 11 11 7 10 5 11 7 6 12 15 10 7 5 7 6 5 6 5 5 5 5 5 5 5 6 5 5 5 5 5 6 6 6 6 7 7 5 5 nan
nan 6 8 6 4 6 5 3 1 6 10 4 7 4 4 7 5 16 20 10 6 6 5 7 6 5 5 5 5 5 5 5 5 6 6 5 5 6 5 5 5 6 7 7 8 6 5 6 nan
nan 7 6 6 6 7 6 2 2 8 9 4 6 5 5 3 14 16 14 10 6 5 6 5 6 8 6 5 5 5 6 5 5 5 6 6 5 5 5 6 6 7 8 8 7 6 6 5 nan
nan 9 7 6 6 4 7 8 8 9 3 7 4 6 7 -3 7 13 14 11 11 7 7 7 6 6 7 6 5 5 6 6 5 5 5 6 5 5 5 6 5 6 7 7 7 6 5 5 nan
nan 7 6 5 5 5 10 11 6 5 5 7 2 7 4 -1 11 15 7 10 12 10 7 8 7 3 3 5 7 7 7 7 6 5 5 6 5 6 6 6 6 5 6 6 6 6 5 5 nan
nan 8 6 6 7 8 8 5 7 7 3 5 7 6 1 6 12 14 7 6 6 9 9 9 7 6 6 3 3 8 8 8 8 6 6 6 4 5 5 6 7 6 6 6 6 6 5 5 nan
nan 7 6 8 7 6 4 3 4 3 4 4 3 3 1 6 10 9 7 2 5 6 8 8 8 7 7 8 5 5 6 6 6 5 6 6 6 6 3 4 8 7 6 6 6 5 6 4 nan
nan 6 8 6 3 4 3 -0 4 2 4 3 4 3 6 7 8 7 8 6 4 4 6 8 7 6 5 8 10 7 6 6 6 6 4 3 7 7 5 6 7 6 6 5 5 4 6 4 nan
nan 7 7 7 7 6 4 6 7 6 6 5 3 4 9 8 10 10 8 7 7 7 7 8 7 7 6 6 6 7 8 8 10 9 6 5 6 8 6 6 7 7 6 6 6 5 5 5 nan
nan 8 6 5 5 7 6 8 8 8 6 8 7 8 5 7 7 11 12 8 6 6 8 7 8 6 5 6 8 6 6 6 7 9 6 5 7 8 7 6 7 6 8 9 6 6 8 8 nan
nan 5 5 4 3 7 5 4 7 8 12 11 9 9 8 7 7 12 12 11 9 6 6 8 7 6 6 6 6 7 7 7 7 7 6 5 6 7 8 7 6 6 8 8 8 7 7 8 nan
nan 5 6 9 12 10 10 10 15 11 11 11 11 10 11 9 10 10 10 12 12 7 8 9 5 6 5 6 7 6 7 8 8 7 8 6 5 7 7 7 6 6 7 8 8 8 7 7 nan
nan 8 13 12 12 13 16 15 3 5 8 8 8 8 8 7 13 11 9 11 11 11 8 8 10 11 9 4 4 7 8 8 7 8 9 7 7 7 7 6 6 7 8 8 7 7 8 7 nan
nan 8 7 7 8 10 8 4 5 0 -2 7 7 9 8 10 9 8 12 11 10 13 12 11 12 9 6 4 6 7 8 8 8 7 9 10 8 6 5 7 9 8 6 7 8 6 7 8 nan
nan 5 6 5 8 4 1 7 3 -3 6 7 7 7 9 8 7 10 11 11 9 9 10 13 13 9 7 6 7 9 7 7 9 8 8 9 8 7 6 7 9 8 8 8 7 6 6 8 nan
nan 8 7 6 5 4 6 9 5 4 7 6 8 9 9 10 10 9 10 11 13 11 8 9 12 11 9 9 8 8 8 8 9 10 10 7 8 6 3 7 10 8 7 8 10 9 6 8 nan
nan 8 6 8 5 9 9 6 5 14 13 10 12 9 8 10 11 9 9 11 12 9 8 8 10 12 9 9 8 8 9 7 7 10 10 10 9 8 5 6 8 7 7 8 7 9 9 8 nan
nan 8 10 7 5 8 7 14 22 20 13 11 11 8 7 7 8 8 7 10 10 10 10 11 10 11 8 6 8 9 10 9 9 10 11 11 10 10 7 6 7 7 8 10 8 3 5 11 nan
nan 8 8 6 10 8 12 16 11 10 12 6 5 8 8 8 5 6 9 11 9 10 11 11 13 13 13 7 4 7 8 9 11 8 9 9 10 10 11 8 8 8 7 8 9 9 4 5 nan
nan 5 6 3 8 10 12 13 9 5 2 1 4 5 5 5 8 9 7 8 10 13 13 14 14 15 15 13 9 8 5 7 9 11 8 13 11 7 8 9 6 7 8 8 9 10 7 6 nan
nan 4 8 14 11 9 11 15 3 2 2 1 6 6 6 7 7 6 8 10 10 13 16 19 18 22 20 17 11 9 8 7 11 14 15 11 10 8 6 8 7 7 8 10 9 10 7 6 nan
nan 14 12 12 14 9 5 8 3 2 3 7 6 7 8 8 9 11 13 13 15 19 20 15 17 21 22 18 20 18 13 9 10 10 10 7 12 12 8 10 12 8 8 10 10 9 7 6 nan
nan 13 14 9 9 4 1 8 6 1 9 9 6 10 10 9 12 10 19 23 27 22 16 13 13 13 16 16 18 17 11 9 10 9 12 14 8 11 13 12 9 9 9 8 9 10 9 8 nan
nan 12 11 8 6 5 12 10 1 4 7 5 6 11 11 17 13 9 11 18 21 21 15 11 9 10 11 12 12 14 12 8 4 10 15 15 11 12 12 8 9 11 10 9 7 8 10 10 nan
nan 8 8 13 9 11 12 5 5 4 1 5 9 13 16 14 6 7 10 9 9 11 9 12 11 7 8 10 8 9 11 13 12 10 8 9 10 12 13 11 12 10 10 11 8 8 9 9 nan
nan 10 10 9 9 10 7 11 8 1 7 9 14 12 9 6 6 8 5 9 7 8 9 9 10 10 8 10 9 9 8 7 10 9 7 9 8 9 12 13 14 13 11 12 11 10 10 7 nan
nan 8 8 9 10 7 9 10 8 6 10 15 12 8 8 9 7 7 5 6 7 6 9 6 8 10 11 9 9 9 8 8 9 7 7 8 9 9 10 10 11 15 14 12 12 10 11 10 nan
nan nan nan nan nan nan nan nan nan nan nan nan nan nan nan nan nan nan nan nan nan nan nan nan nan nan nan nan nan nan nan nan nan nan nan nan nan nan nan nan nan nan nan nan nan nan nan nan nan
CAPE
0 0 0 0 0 0 0 0 0 0 0 0 0 0 0 0 133 52 154 422 734 995 1419 1460 1469 1501 1401 1425 1505 1617 1848 2072 2135 2120 2099 2115 2161 2247 2283 2276 2275 2298 2222 1834 1759 1834 1780 1515 1314
0 0 0 0 0 0 0 0 0 0 0 0 0 0 0 0 0 151 464 463 911 1304 1488 1560 1395 1484 1508 1480 1547 1742 1977 2045 2041 2104 2168 2214 2274 2305 2313 2251 2185 2257 2210 1921 1784 1838 1670 1460 1439
0 0 0 0 0 0 0 0 0 0 0 0 0 0 0 0 46 327 293 619 1054 1422 1491 1629 1382 1479 1574 1578 1627 1831 1947 1899 1936 2018 2227 2274 2326 2368 2290 2087 2016 2179 2323 2223 1871 1926 1811 1541 1340
0 0 0 0 0 0 0 0 0 0 0 0 0 0 0 0 2 119 365 820 1225 1509 1515 1374 1302 1468 1608 1698 1741 1881 1871 1792 1806 1959 2200 2321 2356 2339 2047 1880 1977 2260 2367 2370 2164 1841 1447 1087 995
0 0 0 0 0 0 0 0 0 0 0 0 0 0 0 0 3 386 637 940 1106 1515 1586 1681 1218 1467 1670 1844 1852 1811 1736 1719 1766 1936 2101 2223 2153 1975 1712 1646 1836 2079 2265 2254 2039 1574 1169 887 788
0 0 0 0 0 0 0 0 0 0 0 0 0 0 0 0 0 358 659 879 1064 1506 1556 1763 1272 1449 1625 1773 1794 1666 1601 1612 1707 1857 2010 2106 1811 1522 1382 1443 1563 1770 1889 1776 1461 1158 964 686 670
0 0 0 0 0 0 0 0 0 0 0 0 0 0 0 0 0 308 539 582 981 1295 1468 1691 1832 1704 1512 1623 1669 1488 1444 1482 1609 1750 1893 1887 1378 1064 1100 1206 1391 1390 1471 1269 1140 934 746 531 538
0 0 0 0 0 0 0 0 0 0 0 0 0 0 0 0 6 271 494 552 716 954 1296 1523 1640 1476 1633 1932 1509 1255 1235 1253 1449 1565 1693 1610 1117 863 826 902 1213 1251 1120 1108 1006 726 667 415 219
0 0 0 0 0 0 0 0 0 0 0 0 0 0 0 0 236 334 464 514 544 723 953 1246 1105 1098 1407 1392 1618 1084 1033 1053 1253 1474 1412 1414 1795 1378 1023 673 829 1167 871 864 802 614 603 216 134
0 0 0 0 0 0 0 0 0 0 0 0 0 0 0 0 41 374 315 363 426 531 728 576 705 695 729 1033 1256 1857 1876 1830 1903 1991 2133 2111 1878 1773 1154 588 362 805 768 540 582 540 359 338 838
0 0 0 0 0 0 0 0 0 0 0 0 0 0 0 0 0 340 392 265 264 321 439 728 510 668 780 1153 1194 1588 1396 1696 1659 1709 1673 1738 1566 1383 1394 1101 575 701 719 926 573 776 979 1010 962
0 0 0 0 0 0 0 0 0 0 0 0 0 0 0 0 0 0 386 446 700 651 423 635 837 739 757 921 1134 1302 1349 1349 1547 1520 1773 1718 1034 816 1574 1186 680 281 289 767 823 854 1051 1043 884
0 0 0 0 0 0 0 0 0 0 0 0 0 0 0 0 0 0 0 256 628 1040 1018 689 767 729 592 806 1291 1622 1416 1410 1526 1368 1508 1575 1254 1021 1455 1217 556 121 268 641 747 793 623 741 798
0 0 0 0 0 0 0 0 0 0 0 0 0 0 0 0 0 0 0 0 114 881 1212 1231 806 944 808 708 1144 1552 1579 1460 1556 1577 1427 1651 1373 1473 929 1188 755 433 329 405 538 640 450 692 491
0 0 0 0 0 0 0 0 0 0 0 0 0 0 0 0 0 0 0 0 0 142 848 1392 1279 1073 1165 1190 1069 1557 1512 1487 1498 1480 1259 1515 1390 1468 1005 1092 985 490 356 443 446 561 44 570 548
0 0 0 0 0 0 0 0 0 0 0 0 0 0 0 0 0 0 0 0 0 0 0 107 1165 1081 1034 1017 1255 1465 1609 1674 1508 1508 1162 1230 1222 1339 1091 790 1040 666 475 509 547 416 46 289 551
0 0 0 0 0 0 0 0 0 0 0 0 0 0 0 0 0 0 0 0 0 0 0 0 624 1467 1301 1545 1428 1475 1532 1664 1581 1553 1314 1328 1518 1495 1402 1231 1301 639 587 513 497 445 111 50 320
0 0 0 0 0 0 0 0 0 0 0 0 0 0 0 0 0 0 0 0 0 0 0 0 0 975 1567 1705 1599 1533 1514 1582 1635 1641 1352 1190 1138 1639 1833 1339 947 456 357 446 463 253 88 40 125
0 0 0 0 0 0 0 0 0 0 0 0 0 0 0 0 0 0 0 0 0 0 0 0 0 7 1666 1696 1446 1212 1207 1537 1583 1441 1008 796 918 1095 1620 1313 1065 709 600 253 195 134 55 53 150
0 0 0 0 0 0 0 0 0 0 0 0 0 0 0 0 0 0 0 0 0 0 0 0 0 0 722 1556 1673 1551 1475 1383 1384 1073 953 859 912 905 1209 1396 1155 869 753 303 188 142 67 74 97
0 0 0 0 0 0 0 0 0 0 0 0 0 0 0 0 0 0 0 0 0 0 0 0 0 0 150 1951 2070 1912 1719 1776 1116 1050 973 1030 796 874 1043 1218 1245 1043 585 345 319 210 151 104 55
0 0 0 0 0 0 0 0 0 0 0 0 0 0 0 0 0 0 0 0 0 0 0 0 59 131 0 2095 2251 1883 1618 1284 1273 1648 1445 1513 1303 1246 1325 1109 1065 837 605 575 460 369 281 97 36
0 0 0 0 0 0 0 0 0 0 0 0 0 0 0 0 0 0 0 0 0 0 0 13 434 1000 863 1804 2349 1814 1743 1940 1688 1816 2035 2012 2049 1725 1395 1016 864 1035 747 749 571 333 219 146 186
0 0 0 0 0 0 0 0 0 0 0 0 0 0 0 0 0 0 0 0 0 0 22 305 326 340 773 1065 1397 1870 1951 950 1056 1012 1240 1185 1497 1558 1373 1387 1319 1160 883 787 579 377 171 151 135
0 0 0 0 0 0 0 0 0 0 0 0 0 0 10 2 10 14 1 3 2 6 35 8 37 0 0 160 383 631 801 533 759 605 926 1080 837 850 930 1261 985 1049 878 821 665 446 276 157 92
0 0 0 0 0 0 0 0 0 0 0 0 0 0 9 15 4 6 1 15 19 18 3 0 0 1 1 1 0 0 2 212 76 20 173 771 1240 1102 779 370 483 808 843 831 868 346 309 161 121
0 0 0 0 0 0 0 0 0 0 0 1 0 20 22 10 6 8 6 3 16 12 15 17 4 1 2 0 1 1 0 0 1 0 0 5 84 336 775 687 739 688 411 440 530 452 322 148 122
0 0 0 0 0 0 0 0 0 0 4 11 23 10 12 14 15 15 7 14 4 5 9 11 11 10 2 0 0 0 0 0 0 0 0 0 0 0 2 47 397 349 485 308 300 256 293 256 144
0 0 0 2 0 1 13 0 26 34 8 30 9 11 11 10 8 7 5 3 8 0 9 11 0 0 5 0 0 0 0 0 0 0 0 0 0 0 0 0 14 295 486 399 282 458 314 240 266
0 0 0 4 0 20 30 0 3 2 17 17 9 18 13 12 12 8 4 1 3 2 1 14 5 0 2 1 0 0 0 0 0 0 0 0 0 0 0 0 1 2 263 402 290 267 168 196 271